Find Starlink 37591

NORAD ID: 69033 Int'l Des: 2026-101 Owner: SPXS Country: US Constellation: starlink operational
LEOCIRCULARRETROGRADE

当前视图

正在加载3D地球...

About Starlink 37591

Starlink 37591 (NORAD 69033) is a starlink constellation satellite (v2 mini) launched May 6, 2026 by SPXS of US. It operates in LEO, CIRCULAR, RETROGRADE orbit with a mass of 575.00 kg.

关于 Starlink 37591

正在加载描述...

即将过境

Passes for default location (London). Set your location on the main map for personalized predictions.

高度历史

Loading altitude history...

两行轨道根数

1 69033U 26101J 26192.60457902 .00013561 00000-0 42164-3 0 9990
2 69033 97.2853 47.0884 0001808 89.4794 270.6656 15.33443962 10313
Epoch: Jul 11, 2026 • Age: 24 hours

当前状态

高度 467.8 km
远地点 / 近地点 N/A
速度 7.63 km/s
星下点 20.09°N, 79.8°E
发射日期 May 6, 2026
运行时间 0.1 years
类型 internet

技术详情

分类 Payload
质量 575.00 kg
干质量 530.00 kg
总质量 575.00 kg
长度 0.30 m
直径 4.10 m
跨度 29.00 m
形状 Box + pan
制造商 SPXS
平台类型 Starlink V2MO
阶段状态 In Orbit
所有者/国家 SPXS/US

Most Searched